Regional Weather Roundup
Issued by NWS

Home | Current Version | Previous Version | Text Only | Print | Product List | Glossary On
Versions: 1 2 3 4 5 6 7 8 9 10 11 12 13 14 15 16 17 18 19 20 21 22 23 24 25 26 27 28 29 30 31 32 33 34 35 36 37 38 39 40 41 42 43 44 45 46 47 48 49 50
436
ASUS44 KJAN 240810
RWRMS

MISSISSIPPI HOURLY WEATHER ROUNDUP
NATIONAL WEATHER SERVICE JACKSON MS
200 AM CST TUE JAN 24 2017

NOTE: "FAIR: INDICATES FEW OR NO CLOUDS BELOW 12,000 FEET WITH NO
SIGNIFICANT WEATHER AND/OR OBSTRUCTIONS TO VISIBILITY.

MSZ001>002-007>008-010>013-018>021-025>028-034>036-240900-
NORTHWEST MISSISSIPPI

CITY           SKY/WX    TMP DP  RH WIND       PRES   REMARKS
BATESVILLE     FAIR      32  32  99 CALM      29.90R FOG
CLARKSDALE     CLEAR     39  39 100 CALM      29.89R
CLEVELAND      FAIR      39  39 100 CALM      29.89R
GREENWOOD      CLEAR     36  33  89 CALM      29.89R
GREENVILLE     CLEAR     40  38  93 S3        29.89R FOG
OXFORD         FAIR      32  32 100 CALM      29.89S
TUNICA         FOG       37  36  93 CALM      29.90R VSB 1
WINONA         PTSUNNY   34  34 100 CALM      29.88S
$$

MSZ003>006-009-014>017-022>024-029>033-037>039-240900-
NORTHEAST MISSISSIPPI

CITY           SKY/WX    TMP DP  RH WIND       PRES   REMARKS
COLUMBUS AFB   NOT AVBL
CORINTH        FAIR      37  36  93 CALM      29.88R
GOLDN TRIANGLE CLEAR     37  34  87 CALM      29.84R
STARKVILLE     FAIR      34  34 100 CALM      29.89S FOG
TUPELO         CLEAR     37  35  92 CALM      29.88R
$$

MSZ040-058-240900-
CENTRAL MISSISSIPPI

CITY           SKY/WX    TMP DP  RH WIND       PRES   REMARKS
JACKSON INTL   CLEAR     39  38  96 CALM      29.90R
JACKSON HAWKNS CLEAR     40  38  93 CALM      29.90R
MADISON        FAIR     N/A N/A N/A CALM      29.89S
MERIDIAN KEY   CLEAR     39  38  96 CALM      29.89R
MERIDIAN NAS   CLEAR     41  36  82 W3        29.88S
RAYMOND        FAIR      39  37  93 CALM      29.90R FOG
VICKSBURG VKS  SUNNY     41  41 100 CALM      29.89R
$$

MSZ059>079-240900-
SOUTH MISSISSIPPI

CITY           SKY/WX    TMP DP  RH WIND       PRES   REMARKS
BROOKHAVEN     FAIR      41  41 100 CALM      29.92R
HATTIESBURG    CLEAR     43  42  97 CALM      29.91R
LAUREL         FAIR      40  40 100 CALM      29.91R
MCCOMB         CLEAR     43  40  89 CALM      29.90R
NATCHEZ        CLEAR     43  37  81 CALM      29.90R
PINE BELT      CLEAR     41  36  81 CALM      29.92R
$$

MSZ080>082-240900-
COASTAL MISSISSIPPI

CITY           SKY/WX    TMP DP  RH WIND       PRES   REMARKS
BILOXI         CLEAR     51  46  83 N6        29.89R
PASCAGOULA     CLEAR     49  44  83 N6        29.88R
GULFPORT       CLEAR     47  45  93 CALM      29.89R
$$

LAZ007>009-015>016-023>026-240900-
NORTHEAST LOUISIANA

CITY           SKY/WX    TMP DP  RH WIND       PRES   REMARKS
BASTROP        FAIR      37  37  98 CALM      29.91R FOG
TALLULAH/VBURG CLEAR     40  39  97 S3        29.91R
VIDALIA        FAIR      44  43  97 CALM      29.93S
$$




USA.gov is the U.S. government's official web portal to all federal, state and local government web resources and services.